Longville, MN

6:32 AM CDT on August 28, 2016 (GMT -0500)
Longville Municipal

Weather History for KXVG - October, 2011

Change the Weather History Date:

Monday, October 10, 2011

  Actual Average (KPWC) Record (KPWC)
Temperature  
Mean Temperature 60 °F -  
Max Temperature 69 °F 55 °F 77 °F (2003)
Min Temperature 51 °F 35 °F 21 °F (2006)
Degree Days  
Heating Degree Days 5    
Growing Degree Days 10 (Base 50)    
Moisture  
Dew Point 53 °F    
Average Humidity 85    
Maximum Humidity 100    
Minimum Humidity 56    
Precipitation  
Precipitation 0.12 in - - ()
Sea Level Pressure  
Sea Level Pressure 29.95 in    
Wind  
Wind Speed 7 mph (SSE)    
Max Wind Speed 15 mph    
Max Gust Speed 23 mph    
Visibility 9 miles    
Events Rain    
Averages and records for this station are not official NWS values.
T = Trace of Precipitation, MM = Missing Value Source: NWS Daily Summary

Daily Weather History Graph

Daily Weather History Graph

Search for Another Location

Airport or City:

Trip Planner

Search our weather history database for the weather conditions in past years. The results will help you decide how hot, cold, wet, or windy it might be!

Date:

Astronomy

Oct. 10, 2011 Rise Set
Actual Time 7:27 AM CDT 6:39 PM CDT
Civil Twilight 6:57 AM CDT 7:09 PM CDT
Nautical Twilight 6:21 AM CDT 7:44 PM CDT
Astronomical Twilight 5:46 AM CDT 8:20 PM CDT
Moon 5:43 PM CDT (10/10) 6:07 AM CDT (10/10)
Length of Visible Light 12h 12m
Length of Day
11h 11m
Waxing Gibbous, 98% of the Moon is Illuminated
Oct 10
Waxing Gibbous
Oct 11
Full
Oct 19
Last Quarter
Oct 26
New
Nov 2
First Quarter

Hourly Weather History & Observations

Time (CDT) Temp. Dew Point Humidity Pressure Visibility Wind Dir Wind Speed Gust Speed Precip Events Conditions
12:17 AM 53.6 °F 50.0 °F 88% 30.11 in 10.0 mi East 4.6 mph - N/A   Clear
12:38 AM 53.6 °F 50.0 °F 88% 30.11 in 10.0 mi ESE 4.6 mph - N/A   Clear
12:57 AM 53.6 °F 50.0 °F 88% 30.11 in 10.0 mi ESE 5.8 mph - N/A   Clear
1:18 AM 53.6 °F 48.2 °F 82% 30.11 in 10.0 mi ESE 3.5 mph - N/A   Clear
1:37 AM 53.6 °F 48.2 °F 82% 30.10 in 10.0 mi ESE 3.5 mph - N/A   Clear
2:17 AM 51.8 °F 48.2 °F 88% 30.10 in 10.0 mi ESE 3.5 mph - N/A   Clear
2:57 AM 53.6 °F 48.2 °F 82% 30.09 in 10.0 mi East 3.5 mph - N/A   Clear
3:17 AM 51.8 °F 48.2 °F 88% 30.08 in 10.0 mi ESE 4.6 mph - N/A   Clear
3:37 AM 51.8 °F 48.2 °F 88% 30.08 in 10.0 mi Calm Calm - N/A   Clear
4:17 AM 53.6 °F 50.0 °F 88% 30.07 in 10.0 mi ESE 4.6 mph - N/A   Clear
4:57 AM 51.8 °F 48.2 °F 88% 30.06 in 10.0 mi ESE 4.6 mph - N/A   Clear
5:37 AM 51.8 °F 50.0 °F 94% 30.05 in 10.0 mi ESE 4.6 mph - N/A   Clear
5:58 AM 51.8 °F 48.2 °F 88% 30.05 in 10.0 mi SE 3.5 mph - N/A   Clear
6:37 AM 51.8 °F 50.0 °F 94% 30.03 in 10.0 mi ESE 5.8 mph - N/A   Clear
7:18 AM 51.8 °F 50.0 °F 94% 30.03 in 10.0 mi SE 4.6 mph - N/A   Clear
7:38 AM 51.8 °F 48.2 °F 88% 30.02 in 10.0 mi ESE 4.6 mph - N/A   Clear
8:17 AM 53.6 °F 50.0 °F 88% 30.01 in 10.0 mi ESE 4.6 mph - N/A   Clear
8:37 AM 53.6 °F 50.0 °F 88% 30.01 in 10.0 mi ESE 6.9 mph - N/A   Clear
8:57 AM 55.4 °F 50.0 °F 82% 30.01 in 10.0 mi SE 9.2 mph 18.4 mph N/A   Clear
9:17 AM 57.2 °F 50.0 °F 77% 30.00 in 10.0 mi SE 8.1 mph - N/A   Clear
9:37 AM 59.0 °F 51.8 °F 77% 30.00 in 10.0 mi SE 11.5 mph 18.4 mph N/A   Clear
9:57 AM 60.8 °F 51.8 °F 72% 29.99 in 10.0 mi SE 15.0 mph - N/A   Clear
10:37 AM 64.4 °F 51.8 °F 64% 29.97 in 10.0 mi SE 8.1 mph 19.6 mph N/A   Clear
10:57 AM 62.6 °F 51.8 °F 68% 29.97 in 10.0 mi SE 9.2 mph - N/A   Clear
11:18 AM 64.4 °F 51.8 °F 64% 29.96 in 10.0 mi ESE 9.2 mph - N/A   Clear
11:37 AM 66.2 °F 53.6 °F 64% 29.96 in 10.0 mi SE 8.1 mph - N/A   Clear
11:57 AM 66.2 °F 51.8 °F 60% 29.95 in 10.0 mi SE 9.2 mph - N/A   Clear
12:17 PM 66.2 °F 53.6 °F 64% 29.95 in 10.0 mi SE 10.4 mph 16.1 mph N/A   Clear
12:37 PM 69.8 °F 53.6 °F 56% 29.94 in 10.0 mi SE 11.5 mph 16.1 mph N/A   Clear
12:57 PM 69.8 °F 53.6 °F 56% 29.94 in 10.0 mi South 10.4 mph 19.6 mph N/A   Scattered Clouds
1:17 PM 69.8 °F 53.6 °F 56% 29.93 in 10.0 mi South 13.8 mph 19.6 mph N/A   Scattered Clouds
1:37 PM 68.0 °F 53.6 °F 60% 29.92 in 10.0 mi SSE 13.8 mph 21.9 mph N/A   Scattered Clouds
2:17 PM 66.2 °F 53.6 °F 64% 29.91 in 10.0 mi South 8.1 mph - N/A   Overcast
2:37 PM 66.2 °F 53.6 °F 64% 29.90 in 10.0 mi South 10.4 mph 20.7 mph N/A   Mostly Cloudy
2:57 PM 66.2 °F 53.6 °F 64% 29.90 in 10.0 mi South 13.8 mph 23.0 mph N/A   Mostly Cloudy
3:18 PM 64.4 °F 53.6 °F 68% 29.90 in 10.0 mi SSW 10.4 mph - N/A   Overcast
3:37 PM 59.0 °F 55.4 °F 88% 29.90 in 7.0 mi SW 12.7 mph 21.9 mph 0.01 in Rain Rain
4:17 PM 57.2 °F 55.4 °F 94% 29.90 in 5.0 mi South 10.4 mph - 0.06 in Rain Rain
4:37 PM 57.2 °F 55.4 °F 94% 29.90 in 10.0 mi South 10.4 mph 16.1 mph 0.10 in Rain Light Rain
5:17 PM 57.2 °F 55.4 °F 94% 29.88 in 10.0 mi SSE 9.2 mph - 0.01 in Rain Rain
5:37 PM 57.2 °F 57.2 °F 100% 29.87 in 7.0 mi SSE 10.4 mph 16.1 mph 0.01 in   Scattered Clouds
5:57 PM 57.2 °F 57.2 °F 100% 29.87 in 10.0 mi SSE 9.2 mph - N/A   Mostly Cloudy
6:17 PM 57.2 °F 55.4 °F 94% 29.86 in 10.0 mi SSE 9.2 mph 16.1 mph N/A   Mostly Cloudy
6:37 PM 57.2 °F 55.4 °F 94% 29.86 in 10.0 mi South 9.2 mph 18.4 mph N/A   Mostly Cloudy
6:58 PM 57.2 °F 55.4 °F 94% 29.87 in 10.0 mi South 8.1 mph - N/A   Scattered Clouds
7:17 PM 57.2 °F 55.4 °F 94% 29.86 in 10.0 mi SSE 8.1 mph - N/A   Scattered Clouds
7:37 PM 55.4 °F 55.4 °F 100% 29.86 in 10.0 mi SSE 8.1 mph - N/A   Clear
7:57 PM 55.4 °F 55.4 °F 100% 29.86 in 10.0 mi SSE 8.1 mph - N/A   Clear
8:37 PM 55.4 °F 55.4 °F 100% 29.86 in 10.0 mi SSE 8.1 mph - N/A   Clear
8:57 PM 55.4 °F 55.4 °F 100% 29.86 in 10.0 mi South 9.2 mph - N/A   Clear
9:17 PM 55.4 °F 55.4 °F 100% 29.86 in 7.0 mi SSE 6.9 mph - N/A   Clear
9:38 PM 55.4 °F 55.4 °F 100% 29.86 in 7.0 mi SSE 8.1 mph - N/A   Clear
9:57 PM 55.4 °F 55.4 °F 100% 29.86 in 7.0 mi South 9.2 mph - N/A   Clear
10:17 PM 55.4 °F 55.4 °F 100% 29.86 in 7.0 mi South 8.1 mph - N/A   Clear
10:37 PM 55.4 °F 55.4 °F 100% 29.86 in 10.0 mi South 6.9 mph - N/A   Clear
10:58 PM 55.4 °F 55.4 °F 100% 29.86 in 7.0 mi South 3.5 mph - N/A   Scattered Clouds
11:17 PM 55.4 °F 53.6 °F 94% 29.86 in 7.0 mi South 4.6 mph - N/A   Mostly Cloudy
11:37 PM 55.4 °F 53.6 °F 94% 29.85 in 7.0 mi South 4.6 mph - N/A   Scattered Clouds
11:57 PM 55.4 °F 53.6 °F 94% 29.85 in 7.0 mi South 4.6 mph - N/A   Clear